{"data":{"norad_id":59220,"intl_designator":"2024-046V","name":"STARLINK-31523","alt_names":[],"object_type":"PAYLOAD","status":"ACTIVE","operator":null,"country":"US","launch_date":"2024-03-11","launch_site_code":"AFWTR","launch_vehicle":null,"mission":null,"orbit_class":"UNKNOWN","rcs_meters":null,"size_class":null,"mass_kg":null,"dimensions":null,"purposes":["comms"],"wikipedia_slug":null,"has_3d_model":false,"image_url":null,"decayed_at":null,"tle_current":{"epoch":"2026-05-24T12:48:08.065152Z","epoch_age_seconds":112453,"freshness":"FRESH","line1":"1 59220U 24046V   26144.53342668 -.00000220  00000+0  46158-5 0  9991","line2":"2 59220  53.1600 162.1954 0001154  80.2917 279.8216 15.34394783124662","mean_motion":15.34394783,"eccentricity":0.0001154,"inclination_deg":53.16,"raan_deg":162.1954,"arg_perigee_deg":80.2917,"mean_anomaly_deg":279.8216,"bstar":4.6158e-6,"rev_number":12466,"period_min":93.848077167244,"perigee_km":461.92931152135,"apogee_km":463.50818102759,"semimajor_km":6840.8557462745,"source":"CELESTRAK","updated_at":"2026-05-25T13:38:18.868056Z"}}}